Weather History for Merida, Mexico

Change the Weather History Date:

Wednesday, November 21, 2012

  Actual Average Record
Temperature  
Mean Temperature 70 °F -  
Max Temperature 83 °F 85 °F 93 °F (1997)
Min Temperature 57 °F 65 °F 57 °F (2003)
Cooling Degree Days 5    
Growing Degree Days 20 (Base 50)    
Moisture  
Dew Point 61 °F    
Average Humidity 70    
Maximum Humidity 99    
Minimum Humidity 39    
Precipitation  
Precipitation 0.00 in - - ()
Sea Level Pressure  
Sea Level Pressure 30.08 in    
Wind  
Wind Speed 3 mph ()    
Max Wind Speed 14 mph    
Max Gust Speed -    
Visibility 6.4 miles    
Events      
Averages and records for this station are not official NWS values.
T = Trace of Precipitation, MM = Missing Value Source: Averaged Metar Reports

Daily Weather History Graph

Daily Weather History Graph

Search for Another Location

Airport:

Trip Planner

Search our weather history database for the weather conditions in past years. The results will help you decide how hot, cold, wet, or windy it might be!

Date:

Astronomy

Nov. 21, 2012 Rise Set
Actual Time 6:12 AM CST 5:16 PM CST
Civil Twilight 5:49 AM CST 5:39 PM CST
Nautical Twilight 5:22 AM CST 6:06 PM CST
Astronomical Twilight 4:55 AM CST 6:33 PM CST
Moon 12:51 PM CST (11/21) 12:18 AM CST (11/21)
Length of Visible Light 11h 50m
Length of Day
11h 03m
First Quarter, 62% of the Moon is Illuminated
Nov 21
First Quarter
Nov 28
Full
Dec 6
Last Quarter
Dec 13
New
Dec 19
First Quarter

Hourly Weather History & Observations

Time (CST) Temp. Heat Index Dew Point Humidity Pressure Visibility Wind Dir Wind Speed Gust Speed Precip Events Conditions
12:44 AM 66.2 °F - 64.4 °F 94% 30.06 in 7.0 mi Calm Calm - N/A   Clear
1:44 AM 66.2 °F - 64.4 °F 94% 30.05 in 7.0 mi Calm Calm - N/A   Clear
2:50 AM 65 °F - 64 °F 93% 30.05 in 3 mi Calm Calm - -   Scattered Clouds
2:53 AM 64.4 °F - 62.6 °F 94% 30.05 in 7.0 mi Calm Calm - N/A   Clear
3:45 AM 64.4 °F - 62.6 °F 94% 30.05 in 7.0 mi Calm Calm - N/A   Mostly Cloudy
4:44 AM 64.4 °F - 62.6 °F 94% 30.06 in 7.0 mi Calm Calm - N/A   Partly Cloudy
5:46 AM 64.4 °F - 60.8 °F 88% 30.06 in 7.0 mi Calm Calm - N/A   Clear
6:46 AM 64.4 °F - 60.8 °F 88% 30.09 in 7.0 mi Calm Calm - N/A   Partly Cloudy
7:46 AM 69.8 °F - 66.2 °F 88% 30.11 in 7.0 mi Calm Calm - N/A   Mostly Cloudy
8:45 AM 75.2 °F - 62.6 °F 65% 30.12 in 7.0 mi NNE 5.8 mph - N/A   Partly Cloudy
8:50 AM 58 °F - 58 °F 99% 30.09 in 3 mi Calm Calm - -   Clear
9:43 AM 78.8 °F - 59.0 °F 51% 30.12 in 7.0 mi NNE 8.1 mph - N/A   Mostly Cloudy
10:49 AM 80.6 °F 81.1 °F 59.0 °F 48% 30.10 in 7.0 mi North 11.5 mph - N/A   Mostly Cloudy
11:50 AM 81 °F - 64 °F 47% 30.09 in 6 mi NNE 4.5 mph - -   Partly Cloudy
11:50 AM 78.8 °F - 59.0 °F 51% 30.09 in 7.0 mi NNE 6.9 mph - N/A   Mostly Cloudy
12:45 PM 80.6 °F 80.3 °F 53.6 °F 39% 30.06 in 7.0 mi NNE 13.8 mph - N/A   Mostly Cloudy
1:48 PM 80.6 °F 80.8 °F 57.2 °F 45% 30.04 in 7.0 mi NNE 8.1 mph - N/A   Mostly Cloudy
2:42 PM 78.8 °F - 57.2 °F 47% 30.04 in 7.0 mi NNE 9.2 mph - N/A   Scattered Clouds
2:50 PM 79 °F - 68 °F 62% 30.04 in 6 mi NNE 13.4 mph - -   Scattered Clouds
3:44 PM 77.0 °F - 57.2 °F 50% 30.03 in 7.0 mi NNE 6.9 mph - N/A   Scattered Clouds
4:44 PM 77.0 °F - 59.0 °F 54% 30.04 in 7.0 mi NNE 6.9 mph - N/A   Scattered Clouds
5:48 PM 73.4 °F - 60.8 °F 65% 30.07 in 7.0 mi NNE 6.9 mph - N/A   Partly Cloudy
5:50 PM 77 °F - 63 °F 53% 30.05 in 6 mi NNE 8.9 mph - -   Scattered Clouds
6:47 PM 71.6 °F - 60.8 °F 69% 30.07 in 7.0 mi NNE 4.6 mph - N/A   Partly Cloudy
7:45 PM 71.6 °F - 60.8 °F 69% 30.09 in 7.0 mi NE 4.6 mph - N/A   Partly Cloudy
8:42 PM 69.8 °F - 60.8 °F 73% 30.12 in 7.0 mi NNE 4.6 mph - N/A   Scattered Clouds
8:50 PM 72 °F - 63 °F 67% 30.08 in 3 mi NNE 8.9 mph - -   Scattered Clouds
9:42 PM 69.8 °F - 59.0 °F 68% 30.12 in 7.0 mi Calm Calm - N/A   Scattered Clouds
10:49 PM 68.0 °F - 57.2 °F 68% 30.13 in 7.0 mi Calm Calm - N/A   Clear
11:47 PM 64.4 °F - 59.0 °F 83% 30.13 in 7.0 mi Calm Calm - N/A   Clear
11:50 PM 65 °F - 61 °F 81% 30.11 in 3 mi NNE 2.2 mph - -   Scattered Clouds